TimeCST,TemperatureF,Dew PointF,Humidity,Sea Level PressureIn,VisibilityMPH,Wind Direction,Wind SpeedMPH,Gust SpeedMPH,PrecipitationIn,Events,Conditions,WindDirDegrees,DateUTC
12:53 AM,46.9,43.0,86,30.32,10.0,North,3.5,-,N/A,,Clear,10,2013-02-02 06:53:00
1:53 AM,51.1,46.9,86,30.31,10.0,Calm,Calm,-,N/A,,Overcast,0,2013-02-02 07:53:00
2:53 AM,51.1,46.9,86,30.31,10.0,Calm,Calm,-,N/A,,Overcast,0,2013-02-02 08:53:00
3:53 AM,48.9,45.0,86,30.30,10.0,Calm,Calm,-,N/A,,Clear,0,2013-02-02 09:53:00
4:53 AM,48.9,44.1,83,30.29,10.0,East,6.9,-,N/A,,Partly Cloudy,80,2013-02-02 10:53:00
6:53 AM,48.0,43.0,83,30.30,10.0,East,5.8,-,N/A,,Clear,100,2013-02-02 12:53:00
7:53 AM,52.0,46.9,83,30.31,10.0,ESE,4.6,-,N/A,,Clear,120,2013-02-02 13:53:00
8:53 AM,57.9,48.9,72,30.31,10.0,SE,8.1,-,N/A,,Clear,130,2013-02-02 14:53:00
9:53 AM,62.1,48.0,60,30.31,10.0,SE,8.1,-,N/A,,Clear,130,2013-02-02 15:53:00
10:53 AM,66.0,50.0,56,30.30,10.0,SSE,8.1,-,N/A,,Clear,160,2013-02-02 16:53:00
11:53 AM,70.0,51.1,51,30.27,10.0,SSW,8.1,-,N/A,,Clear,210,2013-02-02 17:53:00
12:53 PM,71.1,51.1,49,30.25,10.0,South,8.1,-,N/A,,Clear,170,2013-02-02 18:53:00
1:53 PM,71.1,50.0,47,30.22,10.0,SSW,5.8,-,N/A,,Clear,210,2013-02-02 19:53:00
2:53 PM,71.1,48.9,45,30.22,10.0,WSW,4.6,-,N/A,,Partly Cloudy,250,2013-02-02 20:53:00
3:53 PM,70.0,51.1,51,30.21,10.0,SW,4.6,-,N/A,,Clear,220,2013-02-02 21:53:00
4:53 PM,64.9,52.0,63,30.20,10.0,SSW,9.2,-,N/A,,Clear,200,2013-02-02 22:53:00
5:53 PM,62.1,51.1,67,30.21,10.0,South,5.8,-,N/A,,Clear,190,2013-02-02 23:53:00
6:53 PM,59.0,51.1,75,30.23,10.0,SSW,4.6,-,N/A,,Clear,200,2013-02-03 00:53:00
7:53 PM,55.9,51.1,84,30.24,10.0,SSW,3.5,-,N/A,,Clear,200,2013-02-03 01:53:00
8:53 PM,54.0,51.1,90,30.24,8.0,SSW,4.6,-,N/A,,Clear,200,2013-02-03 02:53:00
9:38 PM,55.4,53.6,94,30.24,1.8,Calm,Calm,-,N/A,,Clear,0,2013-02-03 03:38:00
9:47 PM,55.4,53.6,94,30.24,0.8,Calm,Calm,-,N/A,,Mist,0,2013-02-03 03:47:00
9:53 PM,55.0,53.1,93,30.24,0.2,Calm,Calm,-,N/A,Fog,Fog,0,2013-02-03 03:53:00
10:24 PM,53.6,51.8,94,30.25,0.2,WSW,3.5,-,N/A,Fog,Fog,240,2013-02-03 04:24:00
10:53 PM,54.0,51.1,90,30.25,0.2,SW,5.8,-,N/A,Fog,Fog,230,2013-02-03 04:53:00
11:10 PM,53.6,51.8,94,30.25,0.2,Calm,Calm,-,N/A,Fog,Fog,0,2013-02-03 05:10:00
11:42 PM,53.6,51.8,94,30.25,0.5,SW,3.5,-,N/A,Fog,Fog,230,2013-02-03 05:42:00
11:53 PM,55.0,53.1,93,30.25,0.5,WSW,3.5,-,N/A,Fog,Fog,240,2013-02-03 05:53:00